SCX942 KSRQ-KMSP

Flight info

Callsign SCX942
Flight time 2h 45m
Altitude 36000
Route TIDES1 MOMIE PATOY Q116 DEEDA VLKNN/N0442F380 MSL STL MNOSO BLUEM4
Aircraft B739/M-SDE2E3FGHIRWXY/LB1

Departure

Time 2026-04-25 00:36
Airport Sarasota Bradenton International Airport (KSRQ)

Arrival

Time 2026-04-25 03:21
Airport Minneapolis–Saint Paul International Airport / Wold–Chamberlain Field (KMSP)
Time Latitude Longitude Altitude Speed Heading
2026-04-24 23:46 27.39049 -82.55387 30 ft 0 kts 186°
2026-04-25 00:24 27.39053 -82.55387 28 ft 1 kts 186°
2026-04-25 00:24 27.39058 -82.55386 29 ft 1 kts 186°
2026-04-25 00:25 27.39062 -82.55386 29 ft 1 kts 186°
2026-04-25 00:25 27.39071 -82.55384 30 ft 1 kts 187°
2026-04-25 00:25 27.39079 -82.55383 30 ft 1 kts 187°
2026-04-25 00:25 27.39092 -82.55382 28 ft 2 kts 178°
2026-04-25 00:26 27.39107 -82.55384 29 ft 2 kts 164°
2026-04-25 00:26 27.39121 -82.55390 28 ft 2 kts 150°
2026-04-25 00:26 27.39126 -82.55391 28 ft 1 kts 102°
2026-04-25 00:26 27.39127 -82.55390 28 ft 0 kts 96°
2026-04-25 00:28 27.39126 -82.55380 29 ft 8 kts 94°
2026-04-25 00:28 27.39125 -82.55333 30 ft 9 kts 91°
2026-04-25 00:28 27.39125 -82.55250 29 ft 13 kts 88°
2026-04-25 00:29 27.39082 -82.55159 29 ft 13 kts 132°
2026-04-25 00:29 27.39019 -82.55087 29 ft 13 kts 135°
2026-04-25 00:29 27.38956 -82.55016 29 ft 13 kts 135°
2026-04-25 00:29 27.38885 -82.54935 29 ft 17 kts 135°
2026-04-25 00:30 27.38801 -82.54841 29 ft 17 kts 134°
2026-04-25 00:30 27.38721 -82.54749 28 ft 16 kts 134°
2026-04-25 00:30 27.38645 -82.54662 28 ft 15 kts 134°
2026-04-25 00:30 27.38587 -82.54588 30 ft 0 kts 111°
2026-04-25 00:34 27.38586 -82.54559 29 ft 12 kts 82°
2026-04-25 00:34 27.38658 -82.54507 29 ft 13 kts 353°
2026-04-25 00:34 27.38668 -82.54514 29 ft 0 kts 315°
2026-04-25 00:35 27.38670 -82.54517 29 ft 0 kts 315°
2026-04-25 00:35 27.38673 -82.54520 29 ft 0 kts 315°
2026-04-25 00:35 27.38675 -82.54522 29 ft 0 kts 315°
2026-04-25 00:35 27.38677 -82.54525 29 ft 2 kts 315°
2026-04-25 00:36 27.38863 -82.54732 30 ft 79 kts 314°
2026-04-25 00:36 27.39427 -82.55378 28 ft 149 kts 314°
2026-04-25 00:36 27.40235 -82.56320 395 ft 176 kts 314°
2026-04-25 00:36 27.41091 -82.57377 1145 ft 185 kts 310°
2026-04-25 00:37 27.42027 -82.58367 2034 ft 192 kts 329°
2026-04-25 00:37 27.43356 -82.58951 2344 ft 218 kts 342°
2026-04-25 00:37 27.44874 -82.59490 2611 ft 237 kts 342°
2026-04-25 00:37 27.46476 -82.60067 2961 ft 244 kts 343°
2026-04-25 00:38 27.48090 -82.60656 2973 ft 244 kts 343°
2026-04-25 00:38 27.49713 -82.61259 2995 ft 247 kts 342°
2026-04-25 00:38 27.51334 -82.61866 3020 ft 254 kts 342°
2026-04-25 00:38 27.53092 -82.62530 3386 ft 269 kts 342°
2026-04-25 00:39 27.54844 -82.63201 4214 ft 270 kts 342°
2026-04-25 00:39 27.56640 -82.63892 4972 ft 275 kts 342°
2026-04-25 00:39 27.58454 -82.64593 5800 ft 275 kts 342°
2026-04-25 00:39 27.60280 -82.65301 6581 ft 278 kts 342°
2026-04-25 00:40 27.62119 -82.66016 7366 ft 279 kts 342°
2026-04-25 00:40 27.63954 -82.66732 8181 ft 279 kts 341°
2026-04-25 00:40 27.65791 -82.67448 9007 ft 278 kts 341°
2026-04-25 00:40 27.67636 -82.68169 9742 ft 282 kts 341°
2026-04-25 00:41 27.69511 -82.68902 10322 ft 291 kts 340°
2026-04-25 00:41 27.71498 -82.69680 10489 ft 314 kts 340°
2026-04-25 00:41 27.73635 -82.70517 10683 ft 334 kts 340°
2026-04-25 00:41 27.75864 -82.71391 11158 ft 342 kts 340°
2026-04-25 00:42 27.78094 -82.72264 11819 ft 344 kts 339°
2026-04-25 00:42 27.80364 -82.73154 12497 ft 346 kts 339°
2026-04-25 00:42 27.82649 -82.74050 13181 ft 349 kts 339°
2026-04-25 00:42 27.84955 -82.74955 13817 ft 352 kts 339°
2026-04-25 00:43 27.87278 -82.75867 14402 ft 354 kts 339°
2026-04-25 00:43 27.89611 -82.76783 15014 ft 356 kts 339°
2026-04-25 00:43 27.91952 -82.77703 15631 ft 357 kts 339°
2026-04-25 00:43 27.94311 -82.78631 16200 ft 359 kts 339°
2026-04-25 00:44 27.96680 -82.79563 16782 ft 361 kts 339°
2026-04-25 00:44 27.99065 -82.80501 17369 ft 363 kts 339°
2026-04-25 00:44 28.01459 -82.81444 17925 ft 365 kts 339°
2026-04-25 00:44 28.03867 -82.82393 18433 ft 368 kts 339°
2026-04-25 00:45 28.06292 -82.83348 18884 ft 371 kts 339°
2026-04-25 00:45 28.08740 -82.84314 19326 ft 373 kts 339°
2026-04-25 00:45 28.11202 -82.85286 19780 ft 376 kts 339°
2026-04-25 00:45 28.13690 -82.86268 20098 ft 383 kts 339°
2026-04-25 00:46 28.16258 -82.87283 20173 ft 396 kts 339°
2026-04-25 00:46 28.18864 -82.88315 20263 ft 406 kts 339°
2026-04-25 00:46 28.24334 -82.90479 20405 ft 425 kts 339°
2026-04-25 00:47 28.27154 -82.91595 20480 ft 432 kts 339°
2026-04-25 00:47 28.30017 -82.92728 20607 ft 437 kts 339°
2026-04-25 00:47 28.32909 -82.93872 20838 ft 439 kts 339°
2026-04-25 00:47 28.35800 -82.95016 21210 ft 438 kts 339°
2026-04-25 00:48 28.38670 -82.96153 21632 ft 435 kts 339°
2026-04-25 00:48 28.41491 -82.97271 22033 ft 434 kts 339°
2026-04-25 00:48 28.44339 -82.98402 22399 ft 434 kts 339°
2026-04-25 00:48 28.47185 -82.99533 22771 ft 433 kts 339°
2026-04-25 00:49 28.50031 -83.00664 23192 ft 432 kts 339°
2026-04-25 00:49 28.52870 -83.01793 23626 ft 431 kts 339°
2026-04-25 00:49 28.55691 -83.02916 24001 ft 430 kts 339°
2026-04-25 00:49 28.58517 -83.04042 24370 ft 429 kts 339°
2026-04-25 00:50 28.61335 -83.05165 24761 ft 428 kts 338°
2026-04-25 00:50 28.64144 -83.06284 25184 ft 427 kts 338°
2026-04-25 00:50 28.66941 -83.07400 25623 ft 425 kts 338°
2026-04-25 00:50 28.69729 -83.08512 26057 ft 424 kts 338°
2026-04-25 00:51 28.72506 -83.09622 26485 ft 423 kts 338°
2026-04-25 00:51 28.75284 -83.10732 26937 ft 421 kts 338°
2026-04-25 00:51 28.78013 -83.11823 27388 ft 420 kts 338°
2026-04-25 00:51 28.80772 -83.12927 27849 ft 419 kts 338°
2026-04-25 00:52 28.83516 -83.14025 28298 ft 418 kts 338°
2026-04-25 00:52 28.86270 -83.15129 28554 ft 423 kts 338°
2026-04-25 00:52 28.89070 -83.16253 28594 ft 431 kts 338°
2026-04-25 00:53 28.94820 -83.18563 28727 ft 445 kts 338°
2026-04-25 00:53 29.00740 -83.20940 28845 ft 457 kts 338°
2026-04-25 00:54 29.06790 -83.23371 28938 ft 464 kts 338°
2026-04-25 00:54 29.09851 -83.24602 29041 ft 466 kts 338°
2026-04-25 00:54 29.12909 -83.25832 29209 ft 466 kts 338°
2026-04-25 00:54 29.15967 -83.27063 29436 ft 464 kts 338°
2026-04-25 00:55 29.19010 -83.28289 29683 ft 463 kts 338°
2026-04-25 00:55 29.22049 -83.29515 29903 ft 463 kts 338°
2026-04-25 00:55 29.25081 -83.30738 30102 ft 462 kts 338°
2026-04-25 00:55 29.28115 -83.31964 30289 ft 462 kts 338°
2026-04-25 00:56 29.31147 -83.33189 30471 ft 462 kts 338°
2026-04-25 00:56 29.34134 -83.34398 30668 ft 461 kts 338°
2026-04-25 00:56 29.37165 -83.35625 30850 ft 461 kts 338°
2026-04-25 00:56 29.40191 -83.36850 31057 ft 460 kts 338°
2026-04-25 00:57 29.43211 -83.38074 31247 ft 460 kts 338°
2026-04-25 00:57 29.46226 -83.39296 31419 ft 460 kts 338°
2026-04-25 00:57 29.49244 -83.40521 31593 ft 460 kts 338°
2026-04-25 00:57 29.52266 -83.41748 31785 ft 459 kts 338°
2026-04-25 00:58 29.55278 -83.42972 31960 ft 459 kts 338°
2026-04-25 00:58 29.58287 -83.44195 32138 ft 459 kts 338°
2026-04-25 00:58 29.61298 -83.45420 32309 ft 458 kts 338°
2026-04-25 00:58 29.64303 -83.46643 32485 ft 458 kts 338°
2026-04-25 00:59 29.67302 -83.47865 32668 ft 457 kts 338°
2026-04-25 00:59 29.70297 -83.49085 32898 ft 456 kts 338°
2026-04-25 00:59 29.73281 -83.50302 33103 ft 455 kts 338°
2026-04-25 00:59 29.76262 -83.51519 33248 ft 455 kts 338°
2026-04-25 01:00 29.79242 -83.52736 33365 ft 455 kts 338°
2026-04-25 01:00 29.82226 -83.53955 33515 ft 456 kts 338°
2026-04-25 01:00 29.85196 -83.55264 33542 ft 457 kts 333°
2026-04-25 01:01 29.90557 -83.59132 33819 ft 454 kts 322°
2026-04-25 01:01 29.93094 -83.61286 33984 ft 453 kts 322°
2026-04-25 01:01 29.95598 -83.63410 34094 ft 453 kts 322°
2026-04-25 01:01 29.98149 -83.65557 34243 ft 453 kts 323°
2026-04-25 01:02 30.00733 -83.67717 34396 ft 452 kts 323°
2026-04-25 01:02 30.03252 -83.69815 34513 ft 452 kts 323°
2026-04-25 01:02 30.05803 -83.71936 34622 ft 452 kts 323°
2026-04-25 01:03 30.10905 -83.76182 34833 ft 452 kts 323°
2026-04-25 01:03 30.13456 -83.78307 34937 ft 452 kts 323°
2026-04-25 01:03 30.16003 -83.80431 35037 ft 452 kts 323°
2026-04-25 01:03 30.18550 -83.82558 35144 ft 451 kts 323°
2026-04-25 01:04 30.21092 -83.84688 35244 ft 451 kts 323°
2026-04-25 01:04 30.26172 -83.88958 35427 ft 451 kts 323°
2026-04-25 01:05 30.31255 -83.93238 35566 ft 453 kts 323°
2026-04-25 01:05 30.36361 -83.97541 35731 ft 453 kts 323°
2026-04-25 01:05 30.38906 -83.99688 35853 ft 452 kts 322°
2026-04-25 01:06 30.41447 -84.01833 35922 ft 452 kts 322°
2026-04-25 01:06 30.46524 -84.06122 35946 ft 452 kts 322°
2026-04-25 01:07 30.51571 -84.10392 35948 ft 452 kts 322°
2026-04-25 01:07 30.56653 -84.14696 35944 ft 452 kts 322°
2026-04-25 01:08 30.61743 -84.19013 35941 ft 453 kts 322°
2026-04-25 01:08 30.66832 -84.23335 35943 ft 453 kts 322°
2026-04-25 01:09 30.71917 -84.27660 35940 ft 453 kts 322°
2026-04-25 01:09 30.77007 -84.31994 35929 ft 453 kts 322°
2026-04-25 01:10 30.82089 -84.36329 35940 ft 453 kts 322°
2026-04-25 01:10 30.87143 -84.40644 35937 ft 454 kts 322°
2026-04-25 01:11 30.92230 -84.44993 35934 ft 454 kts 322°
2026-04-25 01:11 30.97317 -84.49348 35935 ft 454 kts 322°
2026-04-25 01:12 31.02401 -84.53708 35936 ft 454 kts 322°
2026-04-25 01:12 31.07485 -84.58072 35935 ft 454 kts 322°
2026-04-25 01:13 31.12568 -84.62442 35933 ft 454 kts 322°
2026-04-25 01:13 31.17656 -84.66822 35924 ft 454 kts 322°
2026-04-25 01:14 31.21890 -84.70471 35926 ft 456 kts 322°
2026-04-25 01:14 31.26997 -84.74879 35936 ft 457 kts 322°
2026-04-25 01:15 31.32124 -84.79310 35936 ft 458 kts 322°
2026-04-25 01:15 31.37256 -84.83751 35934 ft 459 kts 322°
2026-04-25 01:16 31.42392 -84.88202 35943 ft 459 kts 322°
2026-04-25 01:16 31.47531 -84.92663 35937 ft 460 kts 322°
2026-04-25 01:17 31.52682 -84.97140 35936 ft 461 kts 322°
2026-04-25 01:17 31.57794 -85.01589 35936 ft 461 kts 322°
2026-04-25 01:18 31.62939 -85.06084 35928 ft 461 kts 322°
2026-04-25 01:18 31.68090 -85.10598 35934 ft 462 kts 322°
2026-04-25 01:19 31.73237 -85.15115 35936 ft 463 kts 322°
2026-04-25 01:19 31.78404 -85.19655 35931 ft 463 kts 322°
2026-04-25 01:20 31.83569 -85.24199 35934 ft 464 kts 322°
2026-04-25 01:20 31.88731 -85.28747 35931 ft 464 kts 322°
2026-04-25 01:21 31.93900 -85.33307 35918 ft 464 kts 322°
2026-04-25 01:21 31.99060 -85.37867 35926 ft 464 kts 322°
2026-04-25 01:22 32.04187 -85.42403 35920 ft 464 kts 322°
2026-04-25 01:22 32.09350 -85.46978 35916 ft 464 kts 322°
2026-04-25 01:23 32.14521 -85.51567 35914 ft 465 kts 322°
2026-04-25 01:23 32.19687 -85.56157 35913 ft 465 kts 322°
2026-04-25 01:24 32.24860 -85.60762 35916 ft 465 kts 322°
2026-04-25 01:24 32.30022 -85.65362 35910 ft 466 kts 322°
2026-04-25 01:25 32.35201 -85.69985 35912 ft 466 kts 322°
2026-04-25 01:25 32.40377 -85.74612 35904 ft 467 kts 322°
2026-04-25 01:26 32.45559 -85.79251 35904 ft 467 kts 322°
2026-04-25 01:26 32.50706 -85.83866 35900 ft 467 kts 322°
2026-04-25 01:27 32.55882 -85.88514 35901 ft 467 kts 322°
2026-04-25 01:27 32.61061 -85.93170 35906 ft 468 kts 322°
2026-04-25 01:28 32.68838 -86.00177 35916 ft 468 kts 322°
2026-04-25 01:28 32.74019 -86.04853 35918 ft 468 kts 322°
2026-04-25 01:29 32.79205 -86.09540 35921 ft 468 kts 322°
2026-04-25 01:29 32.84387 -86.14232 35922 ft 468 kts 322°
2026-04-25 01:30 32.89572 -86.18933 35920 ft 468 kts 321°
2026-04-25 01:30 32.94722 -86.23609 35920 ft 469 kts 321°
2026-04-25 01:31 32.99915 -86.28331 35910 ft 469 kts 321°
2026-04-25 01:31 33.05112 -86.33065 35940 ft 470 kts 321°
2026-04-25 01:32 33.10302 -86.37799 35943 ft 470 kts 321°
2026-04-25 01:32 33.15499 -86.42547 35948 ft 470 kts 321°
2026-04-25 01:33 33.20661 -86.47270 35936 ft 470 kts 321°
2026-04-25 01:33 33.25857 -86.52032 35933 ft 470 kts 321°
2026-04-25 01:34 33.31044 -86.56792 35921 ft 470 kts 321°
2026-04-25 01:34 33.36234 -86.61562 35925 ft 470 kts 321°
2026-04-25 01:35 33.41426 -86.66342 35932 ft 470 kts 321°
2026-04-25 01:35 33.46613 -86.71126 35936 ft 470 kts 321°
2026-04-25 01:36 33.51800 -86.75916 35935 ft 470 kts 321°
2026-04-25 01:36 33.56980 -86.80708 35935 ft 470 kts 321°
2026-04-25 01:37 33.62163 -86.85510 35933 ft 470 kts 321°
2026-04-25 01:37 33.67406 -86.90215 35927 ft 472 kts 327°
2026-04-25 01:38 33.73299 -86.93725 35928 ft 474 kts 334°
2026-04-25 01:38 33.79296 -86.97000 35904 ft 473 kts 333°
2026-04-25 01:39 33.85216 -87.00285 35902 ft 473 kts 333°
2026-04-25 01:39 33.91181 -87.03649 35909 ft 473 kts 333°
2026-04-25 01:40 33.97139 -87.07032 35912 ft 474 kts 333°
2026-04-25 01:40 34.03113 -87.10429 35904 ft 474 kts 333°
2026-04-25 01:41 34.09081 -87.13826 35908 ft 474 kts 333°
2026-04-25 01:41 34.15047 -87.17225 35912 ft 475 kts 333°
2026-04-25 01:42 34.21023 -87.20635 35908 ft 475 kts 332°
2026-04-25 01:42 34.27002 -87.24053 35908 ft 475 kts 332°
2026-04-25 01:43 34.32949 -87.27458 35898 ft 476 kts 332°
2026-04-25 01:43 34.38927 -87.30886 35892 ft 476 kts 332°
2026-04-25 01:44 34.44903 -87.34317 35917 ft 475 kts 332°
2026-04-25 01:44 34.50883 -87.37758 35899 ft 476 kts 332°
2026-04-25 01:45 34.56869 -87.41208 35883 ft 477 kts 332°
2026-04-25 01:45 34.62869 -87.44671 35870 ft 477 kts 332°
2026-04-25 01:46 34.68851 -87.48128 35866 ft 476 kts 332°
2026-04-25 01:46 34.74746 -87.51776 35863 ft 475 kts 328°
2026-04-25 01:47 34.80499 -87.55719 35861 ft 475 kts 327°
2026-04-25 01:47 34.86246 -87.59700 35866 ft 475 kts 327°
2026-04-25 01:48 34.92012 -87.63655 35874 ft 475 kts 327°
2026-04-25 01:48 34.97751 -87.67569 35896 ft 476 kts 327°
2026-04-25 01:49 35.03529 -87.71507 35903 ft 475 kts 327°
2026-04-25 01:49 35.09296 -87.75444 35901 ft 475 kts 326°
2026-04-25 01:50 35.15057 -87.79386 35909 ft 474 kts 326°
2026-04-25 01:50 35.20809 -87.83330 35910 ft 474 kts 326°
2026-04-25 01:51 35.26558 -87.87277 35901 ft 474 kts 326°
2026-04-25 01:51 35.32321 -87.91242 35909 ft 475 kts 326°
2026-04-25 01:52 35.38079 -87.95208 35901 ft 475 kts 326°
2026-04-25 01:52 35.43841 -87.99184 35903 ft 475 kts 326°
2026-04-25 01:53 35.49606 -88.03168 35923 ft 476 kts 326°
2026-04-25 01:53 35.55386 -88.07171 35910 ft 477 kts 325°
2026-04-25 01:54 35.61179 -88.11189 35902 ft 479 kts 325°
2026-04-25 01:54 35.66978 -88.15217 35903 ft 481 kts 325°
2026-04-25 01:55 35.72770 -88.19247 35897 ft 481 kts 325°
2026-04-25 01:55 35.78610 -88.23317 35904 ft 482 kts 325°
2026-04-25 01:56 35.84440 -88.27386 35895 ft 481 kts 324°
2026-04-25 01:56 35.90264 -88.31459 35891 ft 481 kts 324°
2026-04-25 01:57 35.98994 -88.37578 35885 ft 481 kts 324°
2026-04-25 01:58 36.04817 -88.41668 35876 ft 481 kts 324°
2026-04-25 01:58 36.10636 -88.45763 35882 ft 481 kts 324°
2026-04-25 01:59 36.16456 -88.49864 35877 ft 482 kts 324°
2026-04-25 01:59 36.22282 -88.53978 35885 ft 482 kts 324°
2026-04-25 02:00 36.28070 -88.58072 35894 ft 482 kts 324°
2026-04-25 02:00 36.33895 -88.62198 35886 ft 482 kts 324°
2026-04-25 02:01 36.39710 -88.66324 35889 ft 481 kts 324°
2026-04-25 02:01 36.45525 -88.70459 35880 ft 481 kts 324°
2026-04-25 02:02 36.51331 -88.74593 35895 ft 481 kts 324°
2026-04-25 02:02 36.56144 -88.78026 35885 ft 479 kts 323°
2026-04-25 02:03 36.61932 -88.82162 35885 ft 479 kts 323°
2026-04-25 02:03 36.67717 -88.86302 35893 ft 479 kts 323°
2026-04-25 02:04 36.73485 -88.90438 35879 ft 480 kts 323°
2026-04-25 02:04 36.79279 -88.94600 35894 ft 480 kts 323°
2026-04-25 02:05 36.85031 -88.98738 35885 ft 480 kts 323°
2026-04-25 02:05 36.90817 -89.02908 35883 ft 480 kts 323°
2026-04-25 02:06 36.96598 -89.07082 35900 ft 480 kts 323°
2026-04-25 02:06 37.02393 -89.11274 35903 ft 481 kts 323°
2026-04-25 02:07 37.08186 -89.15472 35897 ft 481 kts 323°
2026-04-25 02:07 37.13981 -89.19679 35896 ft 481 kts 323°
2026-04-25 02:08 37.19743 -89.23868 35909 ft 481 kts 322°
2026-04-25 02:08 37.25544 -89.28094 35905 ft 483 kts 322°
2026-04-25 02:09 37.31359 -89.32338 35871 ft 483 kts 322°
2026-04-25 02:09 37.37178 -89.36593 35875 ft 484 kts 322°
2026-04-25 02:10 37.42997 -89.40855 35878 ft 484 kts 322°
2026-04-25 02:10 37.48815 -89.45123 35900 ft 484 kts 322°
2026-04-25 02:11 37.54637 -89.49403 35890 ft 484 kts 322°
2026-04-25 02:11 37.60457 -89.53690 35885 ft 485 kts 322°
2026-04-25 02:12 37.66241 -89.57957 35885 ft 485 kts 322°
2026-04-25 02:12 37.72057 -89.62256 35915 ft 485 kts 322°
2026-04-25 02:13 37.77880 -89.66569 35900 ft 485 kts 322°
2026-04-25 02:13 37.83713 -89.70896 35899 ft 486 kts 322°
2026-04-25 02:14 37.89548 -89.75233 35894 ft 486 kts 322°
2026-04-25 02:14 37.95379 -89.79575 35901 ft 486 kts 322°
2026-04-25 02:15 38.01207 -89.83923 35904 ft 486 kts 322°
2026-04-25 02:15 38.07037 -89.88280 35904 ft 486 kts 322°
2026-04-25 02:16 38.12867 -89.92646 35897 ft 487 kts 322°
2026-04-25 02:16 38.18696 -89.97019 35895 ft 486 kts 322°
2026-04-25 02:17 38.24527 -90.01402 35888 ft 487 kts 322°
2026-04-25 02:17 38.30349 -90.05786 35881 ft 486 kts 322°
2026-04-25 02:18 38.36127 -90.10145 35888 ft 486 kts 321°
2026-04-25 02:18 38.41943 -90.14542 35887 ft 486 kts 321°
2026-04-25 02:19 38.47753 -90.18943 35894 ft 486 kts 321°
2026-04-25 02:19 38.53572 -90.23358 35888 ft 486 kts 321°
2026-04-25 02:20 38.59389 -90.27781 35889 ft 486 kts 321°
2026-04-25 02:20 38.65200 -90.32206 35890 ft 486 kts 321°
2026-04-25 02:21 38.71015 -90.36645 35906 ft 487 kts 321°
2026-04-25 02:21 38.76842 -90.41101 35902 ft 488 kts 321°
2026-04-25 02:22 38.82674 -90.45569 35900 ft 489 kts 321°
2026-04-25 02:22 38.88636 -90.49832 35897 ft 495 kts 327°
2026-04-25 02:23 38.94983 -90.53376 35902 ft 499 kts 330°
2026-04-25 02:23 39.01355 -90.56785 35891 ft 499 kts 329°
2026-04-25 02:24 39.07734 -90.60276 35889 ft 498 kts 329°
2026-04-25 02:24 39.14089 -90.63824 35906 ft 497 kts 329°
2026-04-25 02:25 39.20433 -90.67395 35885 ft 496 kts 329°
2026-04-25 02:25 39.26759 -90.70964 35883 ft 496 kts 329°
2026-04-25 02:26 39.33091 -90.74538 35888 ft 496 kts 329°
2026-04-25 02:26 39.39415 -90.78113 35918 ft 495 kts 329°
2026-04-25 02:27 39.45702 -90.81670 35933 ft 493 kts 329°
2026-04-25 02:27 39.51950 -90.85218 35937 ft 494 kts 329°
2026-04-25 02:28 39.58247 -90.88800 35969 ft 494 kts 329°
2026-04-25 02:28 39.64539 -90.92384 35942 ft 493 kts 329°
2026-04-25 02:29 39.70816 -90.95967 35972 ft 493 kts 329°
2026-04-25 02:29 39.77100 -90.99562 35966 ft 493 kts 329°
2026-04-25 02:30 39.83379 -91.03161 35962 ft 493 kts 329°
2026-04-25 02:30 39.89654 -91.06765 35935 ft 493 kts 329°
2026-04-25 02:31 39.95934 -91.10379 35940 ft 493 kts 329°
2026-04-25 02:31 40.02202 -91.13994 35934 ft 493 kts 329°
2026-04-25 02:32 40.08448 -91.17600 35914 ft 487 kts 329°
2026-04-25 02:32 40.14621 -91.21171 35922 ft 485 kts 329°
2026-04-25 02:33 40.20803 -91.24762 35935 ft 487 kts 329°
2026-04-25 02:33 40.26995 -91.28364 35953 ft 488 kts 329°
2026-04-25 02:34 40.33162 -91.31956 35952 ft 488 kts 329°
2026-04-25 02:34 40.39360 -91.35571 35949 ft 486 kts 329°
2026-04-25 02:35 40.45544 -91.39188 35957 ft 487 kts 329°
2026-04-25 02:35 40.51730 -91.42813 35957 ft 487 kts 329°
2026-04-25 02:36 40.57913 -91.46444 35951 ft 487 kts 329°
2026-04-25 02:36 40.64098 -91.50083 35948 ft 486 kts 329°
2026-04-25 02:37 40.70272 -91.53723 35968 ft 485 kts 329°
2026-04-25 02:37 40.76413 -91.57349 35947 ft 483 kts 329°
2026-04-25 02:38 40.82550 -91.60984 35961 ft 484 kts 329°
2026-04-25 02:38 40.88701 -91.64633 35959 ft 484 kts 329°
2026-04-25 02:39 40.94853 -91.68291 35963 ft 485 kts 329°
2026-04-25 02:39 41.00996 -91.71948 35948 ft 483 kts 329°
2026-04-25 02:40 41.07086 -91.75582 35943 ft 483 kts 329°
2026-04-25 02:40 41.13215 -91.79249 35969 ft 483 kts 329°
2026-04-25 02:41 41.19353 -91.82928 35954 ft 484 kts 329°
2026-04-25 02:41 41.25489 -91.86613 35955 ft 484 kts 329°
2026-04-25 02:42 41.31626 -91.90306 35934 ft 484 kts 329°
2026-04-25 02:42 41.37736 -91.93989 35937 ft 479 kts 330°
2026-04-25 02:43 41.43797 -91.97650 35943 ft 479 kts 329°
2026-04-25 02:43 41.49868 -92.01329 35931 ft 480 kts 329°
2026-04-25 02:44 41.55953 -92.05023 35948 ft 480 kts 330°
2026-04-25 02:44 41.62024 -92.08713 35928 ft 478 kts 330°
2026-04-25 02:45 41.68083 -92.12404 35929 ft 478 kts 330°
2026-04-25 02:45 41.74094 -92.16075 35931 ft 478 kts 330°
2026-04-25 02:46 41.80146 -92.19778 35945 ft 478 kts 330°
2026-04-25 02:46 41.86186 -92.23481 35927 ft 477 kts 330°
2026-04-25 02:47 41.92226 -92.27192 35931 ft 477 kts 330°
2026-04-25 02:47 41.98248 -92.30901 35950 ft 474 kts 330°
2026-04-25 02:48 42.04210 -92.34577 35941 ft 470 kts 330°
2026-04-25 02:48 42.10167 -92.38261 35939 ft 472 kts 330°
2026-04-25 02:49 42.16136 -92.41961 35927 ft 473 kts 330°
2026-04-25 02:49 42.22116 -92.45673 35935 ft 473 kts 330°
2026-04-25 02:50 42.28090 -92.49390 35934 ft 472 kts 330°
2026-04-25 02:50 42.34048 -92.53105 35942 ft 471 kts 330°
2026-04-25 02:51 42.39965 -92.56810 35952 ft 471 kts 330°
2026-04-25 02:51 42.45890 -92.60618 35948 ft 471 kts 329°
2026-04-25 02:52 42.51807 -92.64452 35942 ft 471 kts 329°
2026-04-25 02:52 42.57724 -92.68282 35952 ft 471 kts 329°
2026-04-25 02:53 42.62648 -92.71470 35944 ft 472 kts 329°
2026-04-25 02:53 42.68570 -92.75311 35943 ft 472 kts 329°
2026-04-25 02:54 42.74501 -92.79166 35938 ft 472 kts 329°
2026-04-25 02:54 42.80424 -92.83031 35942 ft 472 kts 329°
2026-04-25 02:55 42.86338 -92.86927 35947 ft 472 kts 329°
2026-04-25 02:55 42.92271 -92.90851 35458 ft 471 kts 329°
2026-04-25 02:55 42.95158 -92.92753 35439 ft 453 kts 329°
2026-04-25 02:56 42.97953 -92.94594 35336 ft 438 kts 329°
2026-04-25 02:56 43.00650 -92.96374 35235 ft 424 kts 329°
2026-04-25 02:56 43.03281 -92.98117 34935 ft 416 kts 328°
2026-04-25 02:56 43.05870 -92.99840 34482 ft 413 kts 328°
2026-04-25 02:57 43.08444 -93.01555 34027 ft 410 kts 328°
2026-04-25 02:57 43.10994 -93.03255 33557 ft 406 kts 328°
2026-04-25 02:57 43.13518 -93.04937 33102 ft 401 kts 328°
2026-04-25 02:57 43.16008 -93.06598 32733 ft 395 kts 328°
2026-04-25 02:58 43.18461 -93.08233 32309 ft 390 kts 328°
2026-04-25 02:58 43.20897 -93.09859 31822 ft 388 kts 328°
2026-04-25 02:58 43.23285 -93.11456 31341 ft 386 kts 328°
2026-04-25 02:58 43.25684 -93.13061 30938 ft 382 kts 328°
2026-04-25 02:59 43.28061 -93.14652 30530 ft 378 kts 328°
2026-04-25 02:59 43.30414 -93.16228 30123 ft 374 kts 328°
2026-04-25 02:59 43.32748 -93.17793 29657 ft 371 kts 328°
2026-04-25 02:59 43.35057 -93.19343 29141 ft 368 kts 328°
2026-04-25 03:00 43.37350 -93.20884 28654 ft 366 kts 328°
2026-04-25 03:00 43.39626 -93.22414 28207 ft 363 kts 327°
2026-04-25 03:00 43.41888 -93.23937 27703 ft 361 kts 327°
2026-04-25 03:00 43.44133 -93.25449 27269 ft 358 kts 327°
2026-04-25 03:01 43.46360 -93.26949 26838 ft 355 kts 327°
2026-04-25 03:01 43.48553 -93.28400 26418 ft 354 kts 331°
2026-04-25 03:01 43.50993 -93.29151 25928 ft 369 kts 353°
2026-04-25 03:01 43.53564 -93.29010 25545 ft 369 kts 357°
2026-04-25 03:02 43.56122 -93.28742 25143 ft 368 kts 358°
2026-04-25 03:02 43.58667 -93.28452 24750 ft 366 kts 357°
2026-04-25 03:02 43.61196 -93.28170 24369 ft 363 kts 357°
2026-04-25 03:02 43.63706 -93.27901 24010 ft 360 kts 356°
2026-04-25 03:03 43.66198 -93.27645 23640 ft 358 kts 356°
2026-04-25 03:03 43.68670 -93.27398 23202 ft 356 kts 356°
2026-04-25 03:03 43.71128 -93.27158 22769 ft 353 kts 356°
2026-04-25 03:03 43.73572 -93.26920 22361 ft 350 kts 356°
2026-04-25 03:04 43.76000 -93.26685 21943 ft 348 kts 356°
2026-04-25 03:04 43.78408 -93.26452 21541 ft 346 kts 356°
2026-04-25 03:04 43.80799 -93.26220 21141 ft 344 kts 355°
2026-04-25 03:05 43.85545 -93.25760 20354 ft 340 kts 355°
2026-04-25 03:05 43.87900 -93.25532 19972 ft 338 kts 355°
2026-04-25 03:05 43.90238 -93.25305 19600 ft 336 kts 355°
2026-04-25 03:05 43.92560 -93.25079 19227 ft 334 kts 355°
2026-04-25 03:06 43.94846 -93.24857 18867 ft 332 kts 355°
2026-04-25 03:06 43.97146 -93.24631 18515 ft 330 kts 355°
2026-04-25 03:06 43.99433 -93.24391 18158 ft 329 kts 355°
2026-04-25 03:06 44.01711 -93.24146 17739 ft 328 kts 355°
2026-04-25 03:07 44.03977 -93.23900 17357 ft 325 kts 355°
2026-04-25 03:07 44.06194 -93.23660 16996 ft 323 kts 355°
2026-04-25 03:07 44.08426 -93.23420 16624 ft 321 kts 355°
2026-04-25 03:07 44.10649 -93.23182 16250 ft 319 kts 355°
2026-04-25 03:08 44.12857 -93.22945 15884 ft 317 kts 355°
2026-04-25 03:08 44.15050 -93.22710 15522 ft 316 kts 355°
2026-04-25 03:08 44.17237 -93.22475 15165 ft 314 kts 355°
2026-04-25 03:08 44.19411 -93.22251 14811 ft 313 kts 354°
2026-04-25 03:09 44.21586 -93.22055 14432 ft 312 kts 354°
2026-04-25 03:09 44.23751 -93.21862 14102 ft 311 kts 354°
2026-04-25 03:09 44.25904 -93.21668 13775 ft 309 kts 354°
2026-04-25 03:09 44.28043 -93.21472 13439 ft 307 kts 355°
2026-04-25 03:10 44.30158 -93.21293 13121 ft 303 kts 354°
2026-04-25 03:10 44.32256 -93.21131 12779 ft 301 kts 354°
2026-04-25 03:10 44.34345 -93.20969 12444 ft 299 kts 355°
2026-04-25 03:10 44.36409 -93.20807 12119 ft 296 kts 355°
2026-04-25 03:11 44.38464 -93.20537 11779 ft 299 kts
2026-04-25 03:11 44.40506 -93.19896 11414 ft 301 kts
2026-04-25 03:11 44.42521 -93.19174 11185 ft 297 kts 10°
2026-04-25 03:11 44.44348 -93.17827 11085 ft 298 kts 30°
2026-04-25 03:12 44.45960 -93.16169 10980 ft 284 kts 30°
2026-04-25 03:12 44.47525 -93.14567 10807 ft 277 kts 29°
2026-04-25 03:12 44.49124 -93.12955 10168 ft 290 kts 29°
2026-04-25 03:12 44.50795 -93.11281 9599 ft 298 kts 30°
2026-04-25 03:13 44.52486 -93.09583 9212 ft 298 kts 31°
2026-04-25 03:13 44.54164 -93.07898 8885 ft 296 kts 31°
2026-04-25 03:13 44.55836 -93.06223 8583 ft 293 kts 31°
2026-04-25 03:13 44.57490 -93.04567 8250 ft 291 kts 31°
2026-04-25 03:14 44.59137 -93.02920 7879 ft 291 kts 32°
2026-04-25 03:14 44.60773 -93.01278 7563 ft 288 kts 33°
2026-04-25 03:14 44.62439 -92.99754 7233 ft 283 kts 20°
2026-04-25 03:14 44.64312 -92.99233 6785 ft 277 kts 358°
2026-04-25 03:15 44.66214 -92.99355 6429 ft 271 kts 354°
2026-04-25 03:15 44.68076 -92.99544 6115 ft 261 kts 354°
2026-04-25 03:15 44.69814 -92.99733 6003 ft 242 kts 353°
2026-04-25 03:15 44.71437 -92.99883 5907 ft 226 kts 355°
2026-04-25 03:16 44.72948 -93.00003 5777 ft 210 kts 354°
2026-04-25 03:16 44.74350 -93.00103 5627 ft 192 kts 355°
2026-04-25 03:16 44.75649 -93.00200 5434 ft 183 kts 355°
2026-04-25 03:16 44.76923 -93.00305 5142 ft 182 kts 355°
2026-04-25 03:17 44.78178 -93.00500 4736 ft 181 kts 340°
2026-04-25 03:17 44.79119 -93.01579 4330 ft 174 kts 305°
2026-04-25 03:17 44.79848 -93.02945 3871 ft 174 kts 307°
2026-04-25 03:17 44.80522 -93.04302 3506 ft 167 kts 304°
2026-04-25 03:18 44.81114 -93.05624 3254 ft 153 kts 302°
2026-04-25 03:18 44.81652 -93.06866 3037 ft 145 kts 303°
2026-04-25 03:18 44.82172 -93.08074 2838 ft 146 kts 302°
2026-04-25 03:18 44.82689 -93.09279 2634 ft 141 kts 302°
2026-04-25 03:19 44.83199 -93.10463 2472 ft 144 kts 303°
2026-04-25 03:19 44.83713 -93.11654 2245 ft 137 kts 302°
2026-04-25 03:19 44.84213 -93.12821 2098 ft 143 kts 303°
2026-04-25 03:19 44.84733 -93.14027 1883 ft 142 kts 303°
2026-04-25 03:20 44.85246 -93.15216 1670 ft 140 kts 302°
2026-04-25 03:20 44.85747 -93.16379 1440 ft 139 kts 302°
2026-04-25 03:20 44.86244 -93.17540 1261 ft 135 kts 302°
2026-04-25 03:20 44.86715 -93.18649 1097 ft 130 kts 302°
2026-04-25 03:21 44.87174 -93.19718 925 ft 125 kts 303°
2026-04-25 03:21 44.87619 -93.20733 826 ft 113 kts 301°
2026-04-25 03:21 44.87950 -93.21497 822 ft 69 kts 301°
2026-04-25 03:21 44.88125 -93.21906 823 ft 36 kts 301°
2026-04-25 03:22 44.88138 -93.22121 825 ft 16 kts 231°
2026-04-25 03:22 44.88063 -93.22232 824 ft 15 kts 227°
2026-04-25 03:22 44.87993 -93.22338 824 ft 15 kts 227°
2026-04-25 03:22 44.87923 -93.22439 823 ft 14 kts 224°
2026-04-25 03:23 44.87854 -93.22531 822 ft 13 kts 224°
2026-04-25 03:23 44.87788 -93.22615 824 ft 13 kts 188°
2026-04-25 03:23 44.87719 -93.22548 823 ft 0 kts 136°